Regional Weather Roundup
Issued by NWS

Home | Current Version | Previous Version | Text Only | Print | Product List | Glossary On
Versions: 1 2 3 4 5 6 7 8 9 10 11 12 13 14 15 16 17 18 19 20 21 22 23 24 25 26 27 28 29 30 31 32 33 34 35 36 37 38 39 40 41 42 43 44 45 46 47 48 49 50
705
ASUS44 KLUB 240501
RWRTX
WEST TEXAS WEATHER ROUNDUP
NATIONAL WEATHER SERVICE LUBBOCK TX
1200 AM CDT FRI MAR 24 2017

NOTE: "FAIR" INDICATES FEW OR NO CLOUDS BELOW 12,000 FEET WITH NO
SIGNIFICANT WEATHER AND/OR OBSTRUCTIONS TO VISIBILITY.

TXZ004-006>008-010-012-014-016-OKZ002-240600-
TEXAS PANHANDLE/OKLAHOMA PANHANDLE

CITY           SKY/WX    TMP DP  RH WIND       PRES   REMARKS
AMARILLO       CLOUDY    52  36  54 SW20G31   29.71S
BORGER         CLOUDY    57  39  51 SW13      29.67R
CANADIAN       TSTM      59  57  93 SW13      29.69R
DALHART        CLEAR     49  35  58 S28G33    29.62F
DUMAS          CLEAR     49  35  56 SW32G38   29.62F
GUYMON         MOCLDY    55  46  71 S14       29.57R
HEREFORD       CLEAR     54  31  42 SW14G25   29.78R
PAMPA          CLOUDY    57  47  69 SW13      29.71R
PERRYTON       CLOUDY    60  53  77 S25G35    29.63F
$$

TXZ026-029-035-045-048-240600-
SOUTHERN PANHANDLE/SOUTH PLAINS/ROLLING PLAINS

CITY           SKY/WX    TMP DP  RH WIND       PRES   REMARKS
CHILDRESS      CLOUDY    73  48  41 S20G32    29.69S
SEMINOLE       CLEAR     61  16  17 W16G22    29.90R
LUBBOCK        CLOUDY    60  30  32 W28G36    29.81R
PLAINVIEW      CLOUDY    54  35  49 W23G29    29.78R
SNYDER         CLOUDY    71  54  54 S20G26    29.81S
$$

TXZ052-054-060>062-072-078-127-140-154-169-240600-
PERMIAN BASIN/CONCHO VALLEY/BIG COUNTRY/EDWARDS PLATEAU

CITY           SKY/WX    TMP DP  RH WIND       PRES   REMARKS
ABILENE        PTCLDY    67  48  50 S28G40    29.72F
BIG SPRING     CLOUDY    64  44  47 W14G35    29.88R
JUNCTION       PTCLDY    68  57  68 S17G29    29.85R
MIDLAND        CLOUDY    64  34  32 W16       29.88R
ODESSA           N/A     65  24  21 NW23G36   29.88R
SAN ANGELO     CLEAR     71  52  50 MISG      29.70F
SONORA         CLEAR     70  55  60 S22G32    29.84S
WINK             N/A    N/A N/A N/A MISG      29.92R
$$

TXZ055-058-074-075-080-082-240600-
FAR WEST/SOUTHWEST MOUNTAINS/TRANS PECOS

CITY           SKY/WX    TMP DP  RH WIND       PRES   REMARKS
ALPINE         PTCLDY    62  15  16 NW3       30.03R
DRYDEN           N/A     74  53  48 CALM      29.79R
EL PASO        CLEAR     55  18  23 W28G35    30.00S
FORT STOCKTON  CLOUDY    65  23  20 NW21G29   29.92R
MARFA          CLEAR     57  16  20 W25G37    29.99R
PECOS          CLEAR     63  20  19 NW13      29.95R
PRESIDIO       FAIR      72  17  12 W28G38    29.90R
$$

TXZ014-016-019-021>030-083-240600
TEXAS TECH WEST TEXAS MESONET/TEXAS PANHANDLE/NORTHERN SOUTH PLAINS

CITY           SKY/WX    TMP DP  RH WIND       PRES   REMARKS
ABERNATHY 5ENE   N/A     56  35  45 W20       29.81R
AMARILLO 9NNE    N/A     54  35  49 SW15      29.69S
AMARILLO 7SSE    N/A     52  34  50 SW21      29.73R
AMHERST 1NE      N/A     53  29  40 W13       29.82R
BOOTLEG 11WNW    N/A     47  28  48 SW22      29.76S
CANADIAN 6E      N/A     66  50  54 S17       29.65R
CAPROCK CYN SP   N/A     57  44  62 SW14      29.75F
CHILDRESS 2NNE   N/A     73  49  42 S26       29.68F
CLARENDON 2WSW   N/A     55  48  76 SW8       29.73S
CLAUDE 12SW      N/A     56  37  49 SW9       29.74R
DIMMITT 2NE      N/A     51  32  48 SW22      29.79R
FLOYDADA 2NNE    N/A     53  47  82 W12       29.79R
FRIONA 2NE       N/A     49  29  45 SW18      29.80S
GOODLETT 3W      N/A     73  46  39 S24       29.69F
HART 3N          N/A     51  36  55 W28       29.77R
HEREFORD 2NW     N/A     51  28  41 SW21      29.76S
MCLEAN 1E      RAIN      55  50  83 SW13      29.73R
MEMPHIS 1NE      N/A     58  51  78 W13       29.73R
MULESHOE 2SSW    N/A     52  27  37 SW21G32   29.80S
OLTON 6S         N/A     54  31  40 W26       29.78S
PALO DURO SP     N/A     53  36  52 SW10      29.75R
PAMPA 2E         N/A     55  47  73 SW8       29.70F
PLAINVIEW 1S     N/A     56  39  52 W14       29.78S
SILVERTON 7ESE   N/A     54  44  69 SW17      29.75F
TULIA 2ENE       N/A     54  40  59 SW20      29.76R
TURKEY 2WSW      N/A     56  51  83 SW9       29.73F
UMBARGER 3NNE    N/A     53  33  47 SW24      29.73R
$$

TXZ033>036-039>041-045>048-240600
TEXAS TECH WEST TEXAS MESONET/SOUTH PLAINS

CITY           SKY/WX    TMP DP  RH WIND       PRES   REMARKS
AIKEN 3WSW       N/A     54  41  60 SW16      29.80S
ANDREWS 2NE      N/A     64  14  14 W24       29.89R
ANTON 6SSW       N/A     58  25  28 W28       29.80S
BROWNFIELD 2S    N/A     63  19  18 W25G36    29.82S
DENVR CTY 7WNW   N/A     57  14  18 W15       29.87R
GAIL 2ESE        N/A     72  40  31 W20       29.80R
LAMESA 2SE       N/A     66  22  18 W22       29.84R
LEVELLAND 4S     N/A     57  20  23 W26       29.82R
LUBBOCK 3WNW     N/A     60  27  27 W24G35    29.82R
MORTON 1ENE      N/A     54  22  29 W18       29.84F
ODONNELL 1N      N/A     64  24  22 W16       29.83R
PLAINS 3N        N/A     54  22  29 W14       29.87R
RALLS 1SE        N/A     58  41  52 W14       29.80R
REESE CENTER     N/A     59  22  24 W24       29.82R
SEAGRAVES 1SW    N/A     60  19  20 SW14      29.86R
SEMINOLE 2NNE    N/A     62  12  14 W17       29.87R
SLATON 2NE       N/A     59  39  48 W14       29.81R
SNYDER 3E        N/A     71  54  55 S21       29.80R
SUNDOWN 8SW      N/A     55  22  27 W16       29.86R
TAHOKA 3NNE      N/A     61  33  34 W13       29.82R
WOLFFORTH 6SSW   N/A     59  29  31 W25G36    29.83R
$$

TXZ031-032-036>038-042>044-240600-
TEXAS TECH WEST TEXAS MESONET/ROLLING PLAINS

CITY           SKY/WX    TMP DP  RH WIND       PRES   REMARKS
ASPERMONT 3NE    N/A     73  52  46 S22G32    29.77S
FLUVANNA 3WNW    N/A     71  50  48 S25       29.79S
GRAHAM 5SSW      N/A     63  33  33 W17       29.82R
GUTHRIE 10WSW    N/A     73  51  46 S23       29.73S
HASKELL 1NW      N/A     71  45  38 S16G26    29.79R
JAYTON 1SSE      N/A     72  52  49 S22       29.75S
KNOX CITY 3NW    N/A     74  49  41 S21       29.77R
LK A HENRY 1NW   N/A     73  51  45 S24       29.76R
NORTHFIELD 1S    N/A     65  48  55 W23G35    29.75R
ODELL 4ENE       N/A     72  42  34 S23       29.75R
PADUCAH 10SW     N/A     73  52  47 S23       29.72S
POST 1NE         N/A     64  37  36 W16       29.80R
RRING SPRGS 3N RAIN      58  55  89 SW15      29.77R
SEYMOUR 3NW      N/A     72  41  32 SW22      29.80R
SPUR 1W          N/A     72  51  48 SW22      29.74R
WEINERT 2NNE     N/A     72  47  40 SW18      29.80R
WHITE RVR 6NE    N/A     57  49  73 SW10      29.80R
$$

TXZ052-054-060>062-072-078-127-140-154-169-240600-
TEXAS TECH WEST TEXAS MESONET/PERMIAN BASIN/
CONCHO VALLEY/BIG COUNTRY/EDWARDS PLATEAU

CITY           SKY/WX    TMP DP  RH WIND       PRES   REMARKS
COYANOSA 2N      N/A     66  20  17 NW13      29.94R
JUNCTION 1SSW    N/A     67  56  67 S14       29.84F
MERTZON 3NNE     N/A     70  54  57 S22       29.77R
SAN ANGELO 7NW   N/A     71  52  51 SE15G28   29.75R
STRLNG CT 4WSW   N/A     71  54  54 S17       29.84S
ST LAWRNCE 5SW   N/A     71  50  47 SW21      29.85R
SWEETWATR 11SW   N/A     70  55  58 S21       29.85R
WALL 1E          N/A     71  55  57 S39       29.71F
$$

TXZ055-058-074-075-080-082-240600-
TEXAS TECH WEST TEXAS MESONET/FAR WEST/SOUTHWEST MOUNTAINS/TRANS PECOS

CITY           SKY/WX    TMP DP  RH WIND       PRES   REMARKS
PRSMN GAP BBNP   N/A     78  20  11 NW20G29   29.83R
GUADLPE MTN NP   N/A     47  17  31 NW39G49   29.95R
$$




USA.gov is the U.S. government's official web portal to all federal, state and local government web resources and services.